Lapse_Rate
5.8 5.8 5.6 5.8 5.6 5.5 5.4 5.4 5.2 5.3 4.9 5.2 5.3 5.7 5.8 5.5 5.5 5.8 6.0 5.9 6.1 6.1 6.3 6.3 6.2 6.2 6.3 6.4 6.5 6.5 6.5 6.5 6.5 6.5 6.5 6.5 6.4 6.3 6.2 6.1 6.0 6.1 6.1
5.6 5.7 5.6 6.0 5.5 5.7 5.6 5.5 5.3 5.4 5.1 5.0 5.1 4.8 5.3 5.2 5.3 5.4 5.5 5.6 5.9 5.9 5.9 6.2 6.2 6.1 6.2 6.1 6.2 6.3 6.5 6.3 6.4 6.4 6.3 6.5 6.3 6.2 6.1 6.0 5.8 5.8 5.9
5.5 5.6 5.7 5.9 5.7 5.8 5.8 5.7 5.5 5.5 5.2 5.3 4.9 4.6 4.8 5.3 5.2 5.2 5.3 5.4 5.7 5.9 5.5 5.7 6.1 6.2 6.1 6.0 6.1 6.3 6.1 6.2 6.3 6.4 6.3 6.4 6.4 6.2 6.0 6.0 5.8 5.7 5.7
5.8 5.7 5.5 5.5 5.5 5.5 5.7 5.9 5.7 5.4 5.2 4.9 4.5 4.6 4.9 5.0 5.0 5.2 5.2 5.2 5.5 5.2 5.6 5.8 5.7 5.9 6.2 6.0 5.8 6.1 6.3 6.2 6.2 6.4 6.3 6.3 6.4 6.3 6.1 6.0 5.9 5.7 5.7
5.7 5.6 5.6 5.6 5.9 5.6 5.5 5.6 5.5 5.3 5.3 5.1 5.0 4.7 4.7 4.8 5.0 5.0 5.1 5.2 5.5 5.4 5.7 5.9 5.8 5.8 6.0 6.0 5.8 5.8 6.0 6.1 6.2 6.4 6.4 6.3 6.2 6.3 6.1 6.0 6.0 5.8 5.7
5.7 5.7 5.8 5.9 5.8 5.5 5.6 5.4 5.2 5.2 5.2 5.1 5.0 4.6 4.4 4.8 5.1 5.3 5.0 4.8 5.2 5.4 5.5 5.5 5.7 5.7 5.8 6.0 6.0 5.8 5.9 5.9 6.1 6.3 6.3 6.3 6.2 6.2 6.2 6.1 6.0 5.9 5.8
5.9 5.8 5.9 6.0 5.8 5.8 5.7 5.5 5.3 5.2 5.2 5.2 5.3 5.2 5.0 4.8 4.8 5.1 5.1 5.0 5.2 5.2 5.2 5.4 5.6 5.7 5.9 6.0 6.0 6.0 5.9 5.9 5.9 6.1 6.1 6.1 6.2 6.2 6.2 6.2 6.1 6.0 5.9
6.0 5.7 5.7 5.9 6.1 5.8 5.5 5.5 5.5 5.1 5.1 5.3 5.4 5.4 5.1 4.9 4.8 4.9 4.9 5.1 5.3 5.4 5.3 5.2 5.2 5.1 5.5 6.0 6.3 5.9 5.9 5.9 6.0 6.0 6.0 6.0 6.0 6.1 6.1 6.1 6.2 6.0 5.9
6.2 6.0 5.8 6.0 5.9 5.8 5.7 5.6 5.4 5.4 5.2 5.1 5.3 5.2 5.3 5.3 5.1 4.9 5.1 5.1 5.4 5.3 5.3 5.2 4.9 5.4 5.3 5.6 5.9 6.0 5.9 5.8 5.9 6.1 6.1 6.0 5.9 5.8 6.0 6.0 6.0 6.1 6.0
6.3 6.3 6.0 6.1 5.9 5.6 5.6 5.6 5.6 5.6 5.4 5.3 5.3 5.2 5.4 5.4 5.4 5.3 5.2 4.9 5.1 5.1 5.2 5.1 4.8 4.9 5.1 5.3 5.5 5.7 5.9 5.9 5.8 6.1 6.0 5.9 5.8 5.8 5.8 5.9 6.0 6.0 6.0
6.4 6.4 6.2 5.9 5.8 5.8 5.7 5.7 5.7 5.8 5.6 5.4 5.4 5.4 5.4 5.5 5.4 5.4 5.3 5.1 5.1 5.2 5.1 4.9 4.9 4.8 4.8 5.1 5.6 5.9 6.1 6.1 6.0 6.0 5.9 5.8 5.7 5.7 5.7 5.8 5.8 5.9 5.9
6.1 6.1 6.1 5.9 5.7 5.7 5.8 6.0 5.9 5.9 5.5 5.7 5.6 5.6 5.4 5.5 5.6 5.4 5.3 5.3 5.3 5.3 5.2 5.0 5.0 5.1 5.2 5.3 5.3 5.9 5.8 5.9 5.9 5.9 6.0 5.7 5.7 5.6 5.8 5.8 5.8 5.8 5.8
6.0 5.9 5.8 5.8 5.8 5.7 5.8 5.9 6.0 6.0 5.9 5.9 5.8 5.8 5.7 5.6 5.6 5.3 5.1 5.1 5.1 5.3 5.4 5.2 5.2 5.3 5.1 4.9 5.2 5.4 6.0 5.8 5.9 5.8 5.8 5.6 5.5 5.6 5.6 5.9 5.9 5.8 5.8
5.8 6.0 5.7 5.7 5.5 5.4 5.6 5.7 5.9 6.0 6.0 5.9 5.9 6.0 5.8 5.9 5.7 5.4 5.2 5.3 5.3 5.1 5.3 5.1 5.2 5.3 5.3 5.2 5.1 5.4 5.6 5.8 5.6 5.6 5.6 5.4 5.5 5.3 5.4 5.5 5.7 5.8 5.8
6.0 6.1 6.0 6.0 5.9 5.9 5.8 5.9 6.0 6.1 6.2 6.2 6.0 6.2 6.0 5.8 5.8 5.7 5.4 5.4 5.4 5.6 5.6 5.3 5.4 5.4 5.2 5.1 5.0 5.2 5.5 5.5 5.2 5.5 5.5 5.4 5.3 5.2 5.3 5.4 5.4 5.6 5.7
6.3 6.2 6.2 6.3 6.2 6.3 6.1 6.1 6.4 6.4 6.4 6.2 6.2 6.4 6.2 6.1 6.1 5.8 5.8 5.8 5.5 5.7 5.4 5.2 5.4 5.4 5.2 5.2 5.1 5.3 5.5 5.4 5.4 5.2 5.1 5.1 5.2 5.1 5.1 5.1 5.2 5.5 5.5
6.5 6.5 6.5 6.6 6.6 6.6 6.4 6.5 6.6 6.5 6.7 6.6 6.5 6.5 6.4 6.2 6.2 6.0 6.0 5.9 6.0 5.6 5.2 5.3 5.1 5.2 5.1 5.3 5.2 5.4 5.5 5.3 5.2 5.3 5.4 5.4 5.3 5.3 5.2 5.1 5.1 5.4 5.5
6.4 6.2 6.3 6.5 6.5 6.5 6.5 6.7 6.8 6.6 6.8 6.7 6.7 6.6 6.5 6.6 6.4 6.3 6.3 6.2 5.9 6.0 6.0 6.2 5.4 5.4 5.7 5.6 5.5 5.4 5.2 5.2 5.2 5.4 5.6 5.4 5.2 5.3 5.3 5.4 5.4 5.3 5.1
6.5 6.5 6.4 6.5 6.6 6.8 6.8 6.9 6.8 6.8 7.0 6.9 6.9 6.8 6.7 6.9 6.9 6.6 6.5 6.6 6.6 6.4 6.2 6.2 6.0 5.9 6.3 6.1 5.6 5.5 5.3 5.5 5.3 5.3 5.3 5.3 5.3 5.2 5.2 5.5 5.6 5.5 5.3
6.4 6.4 6.4 6.6 6.9 7.0 7.2 7.3 7.3 7.3 7.3 7.0 6.9 7.0 7.0 7.0 7.1 7.1 7.0 7.0 6.9 6.7 6.5 6.3 6.2 6.2 6.1 5.9 5.7 5.8 5.8 5.7 5.7 5.6 5.4 5.3 5.3 5.4 5.3 5.4 5.6 5.4 5.4
6.8 6.7 6.7 6.9 7.0 7.2 7.3 7.2 7.3 7.3 7.3 7.3 7.2 7.2 7.3 7.2 7.1 7.0 7.0 6.9 6.9 6.9 6.9 6.6 6.1 6.2 6.2 6.1 6.0 5.7 5.7 5.5 5.4 5.6 5.8 5.6 5.4 5.3 5.4 5.4 5.5 5.5 5.5
7.4 7.3 7.3 7.3 7.2 7.3 7.3 7.5 7.5 7.4 7.3 7.1 7.0 7.1 7.2 7.1 7.1 7.2 7.1 7.0 6.9 6.9 6.9 6.8 6.6 6.1 6.1 6.0 6.0 6.0 5.9 5.9 5.6 5.8 5.8 5.4 5.4 5.4 5.5 5.3 5.4 5.3 5.4
7.8 7.8 7.8 7.7 7.6 7.4 7.4 7.4 7.5 7.4 7.3 7.0 7.0 6.9 6.9 6.9 7.0 6.9 7.0 7.0 7.1 7.0 6.9 6.8 6.6 6.3 6.1 6.0 5.9 5.9 5.8 5.8 5.7 5.5 5.9 5.6 5.8 6.0 5.8 5.7 5.3 5.2 5.3
8.2 8.1 8.0 8.0 8.1 7.8 7.6 7.5 7.4 7.3 7.2 7.0 6.8 6.7 6.6 6.6 6.7 6.8 6.9 6.9 6.8 6.9 6.9 6.8 6.5 6.3 6.0 5.9 5.9 5.9 5.8 5.8 5.7 5.5 5.6 5.9 5.5 5.8 5.8 5.8 5.9 5.9 5.7
8.4 8.6 8.4 8.1 7.9 7.9 8.1 7.8 7.5 7.2 7.0 6.8 6.7 6.5 6.4 6.4 6.4 6.3 6.4 6.7 6.5 6.5 6.5 6.5 6.4 6.2 6.2 6.0 5.9 5.6 5.7 5.6 5.6 5.4 5.3 5.7 5.6 5.7 5.6 5.7 5.8 5.8 5.7
8.5 8.4 8.6 8.4 8.2 8.0 8.0 7.9 7.8 7.6 7.4 7.1 7.0 6.8 6.6 6.4 6.2 6.2 6.1 6.2 6.7 6.3 6.4 6.2 6.1 6.1 5.9 5.6 5.6 5.7 5.8 5.7 5.7 5.8 5.2 5.4 5.3 5.3 5.6 5.3 5.3 5.5 5.5
Wind_Speed
7 10 9 10 11 11 11 8 9 8 8 10 10 9 9 9 8 9 8 9 10 13 12 11 10 9 9 9 8 9 10 11 9 9 10 11 12 12 12 13 14 14 14
13 10 9 8 9 11 11 11 11 8 7 9 7 7 7 8 7 8 8 5 4 9 13 13 12 10 9 8 9 8 10 13 11 10 10 11 12 11 11 12 13 13 13
15 14 9 7 11 11 12 10 8 8 6 6 4 7 6 5 7 9 8 6 6 5 8 12 14 11 11 10 10 9 11 13 13 12 11 12 12 11 10 10 11 11 11
19 12 8 7 15 12 11 6 3 4 4 4 3 3 4 4 2 6 7 10 7 4 6 10 12 13 12 12 11 11 11 13 15 14 12 12 12 11 10 10 9 10 10
17 14 9 9 13 10 9 5 2 2 3 3 3 3 4 4 6 8 8 10 12 6 6 9 11 12 12 13 13 12 13 14 15 16 14 13 13 13 11 10 9 8 8
15 13 10 10 13 5 4 4 4 2 2 3 1 3 3 4 6 6 8 9 9 10 10 8 6 11 13 15 16 14 15 14 14 16 16 14 14 14 13 12 11 10 9
15 12 8 8 10 8 8 8 3 4 3 3 1 2 4 5 4 4 8 8 9 11 11 14 10 9 9 17 17 18 18 17 16 17 17 17 16 15 15 14 14 12 10
15 12 9 5 8 6 6 7 5 3 3 4 3 1 2 1 4 5 4 5 7 9 8 8 11 15 15 14 16 18 20 20 20 19 18 19 18 17 17 17 15 15 13
15 13 13 9 7 5 7 7 7 7 4 4 6 3 1 2 2 1 5 5 5 3 8 11 13 14 15 19 14 15 20 22 21 21 20 20 20 19 19 19 18 17 16
15 15 14 12 9 6 6 8 7 4 4 3 2 5 2 2 1 3 1 4 4 5 7 9 11 13 14 17 18 18 17 23 23 23 23 23 22 22 21 20 20 20 19
13 15 14 12 6 6 6 8 6 7 5 3 3 3 4 4 6 3 2 3 2 5 6 8 15 12 15 18 16 20 24 23 26 25 24 24 24 24 24 23 22 21 21
6 9 12 10 11 7 7 7 8 9 9 6 4 5 4 3 3 3 4 4 5 4 7 6 9 12 14 16 16 16 22 25 27 28 28 27 26 26 26 25 24 23 22
5 9 7 7 6 8 8 7 7 8 8 8 9 7 6 7 4 2 2 3 4 4 3 5 8 12 14 15 16 20 17 22 25 28 30 31 29 28 28 28 27 26 25
7 8 9 10 11 11 11 9 6 7 8 9 11 8 6 7 5 4 3 4 2 3 2 5 4 12 15 14 16 20 21 24 23 25 30 31 32 31 32 31 28 28 28
8 8 10 12 11 10 10 8 7 8 6 7 9 8 8 6 6 6 5 4 4 3 3 4 4 9 12 13 17 17 18 21 28 26 25 30 33 34 33 33 31 30 29
7 7 7 9 10 10 11 10 8 6 6 6 5 6 6 3 4 4 4 3 3 4 4 3 3 2 7 9 14 17 17 19 24 28 30 28 34 34 35 33 34 32 32
7 7 7 8 10 10 9 9 8 6 7 7 5 5 6 4 3 3 3 3 4 4 5 3 2 1 4 6 7 13 13 13 15 23 27 30 29 30 32 33 33 33 33
7 8 8 8 8 9 9 10 10 7 6 6 5 5 6 3 5 5 4 5 4 5 5 7 2 3 6 5 4 5 8 13 13 18 24 28 30 30 32 34 35 35 35
8 7 7 9 9 9 9 9 9 7 7 6 6 6 6 6 5 4 5 5 3 3 4 3 3 1 3 2 3 4 4 8 11 17 20 25 28 30 31 34 36 37 37
11 9 10 8 8 7 8 8 8 7 7 6 7 7 7 6 6 6 5 5 4 4 3 3 3 3 3 2 2 3 3 4 6 12 16 18 23 28 31 34 36 37 39
11 12 11 9 9 8 7 8 8 8 7 7 6 6 7 7 9 7 4 5 5 4 3 3 3 2 2 2 3 2 3 2 3 5 5 6 9 13 16 25 25 28 31
10 10 11 11 9 8 11 14 9 6 7 6 6 6 4 6 7 8 10 9 7 5 4 3 2 3 4 2 2 3 2 1 3 2 3 4 8 7 10 15 22 30 31
11 11 11 10 10 9 13 14 13 6 7 7 6 5 4 5 7 6 8 8 8 8 6 5 5 5 3 5 3 3 4 3 3 3 1 4 3 7 10 15 26 30 32
12 12 12 11 10 8 11 12 13 6 6 7 7 7 6 6 7 7 6 6 7 6 7 6 7 8 6 4 5 4 3 3 3 4 3 4 2 4 3 11 21 27 30
11 11 9 10 8 7 12 13 9 5 5 5 5 5 6 6 8 10 6 7 7 7 10 18 19 17 12 17 11 2 4 2 3 3 3 3 2 3 3 4 9 18 24
12 8 8 8 10 8 11 12 11 4 5 4 4 5 10 8 10 9 6 6 5 6 4 3 4 6 14 13 14 9 3 4 3 3 4 4 1 2 3 2 2 4 6
Wind_Direction
160 160 169 172 168 164 160 168 151 130 120 120 119 112 97 118 104 131 151 177 183 166 170 176 175 178 174 164 168 163 150 137 134 128 121 114 106 102 98 97 99 104 102
165 173 182 177 182 170 162 153 147 157 144 124 119 118 116 112 114 139 136 132 189 188 180 181 185 184 185 189 183 182 164 150 147 141 135 126 118 120 119 116 113 110 108
178 172 177 167 188 174 161 155 142 136 116 110 118 127 122 135 135 158 162 165 171 188 208 196 189 195 191 201 200 192 178 168 158 155 151 142 135 133 131 128 125 121 119
175 156 163 177 188 176 161 166 144 132 129 164 169 176 152 167 163 174 209 230 211 206 232 223 207 199 204 204 209 201 192 185 171 165 166 160 151 149 145 142 140 136 133
167 156 161 165 159 153 153 149 144 130 167 216 174 168 192 185 200 208 225 230 215 216 214 231 225 213 211 222 210 209 199 192 182 174 178 176 168 162 162 158 156 154 150
174 160 160 159 166 139 133 150 159 180 169 185 232 247 224 226 215 211 231 242 228 220 227 220 242 233 222 225 225 215 210 202 197 191 183 185 182 176 174 172 170 174 173
177 175 157 148 166 172 177 176 148 175 212 174 142 242 253 233 212 212 218 238 225 228 231 216 220 231 236 228 229 222 212 207 202 200 195 190 193 188 184 184 182 185 192
185 179 163 160 171 170 165 171 157 168 216 181 181 137 289 292 223 218 194 210 223 206 229 232 230 227 226 237 229 229 220 212 208 205 206 201 199 198 194 195 195 196 201
188 190 179 168 168 168 184 181 184 185 174 186 206 161 195 254 322 231 208 205 194 195 218 222 222 224 223 228 235 230 225 222 216 208 210 210 206 205 203 203 203 206 209
195 195 189 181 170 178 180 194 196 186 177 184 178 229 241 148 248 319 258 235 199 196 210 220 234 227 222 225 229 232 232 227 223 214 212 212 209 210 210 211 209 212 216
196 195 193 188 187 187 193 192 191 205 199 177 170 157 212 225 221 197 255 242 200 219 210 207 226 220 219 226 230 233 230 224 222 221 215 216 213 216 218 217 218 216 219
209 205 196 194 203 206 195 195 197 205 204 207 195 208 196 188 192 182 210 225 224 231 220 212 214 222 225 224 228 231 229 227 221 219 219 217 217 216 222 222 223 224 224
201 214 199 200 206 211 207 200 188 202 212 211 209 224 221 222 200 190 161 222 228 233 202 224 217 212 221 225 220 228 237 227 224 225 225 223 222 222 221 223 223 227 227
204 210 204 208 212 210 217 212 211 209 195 212 219 220 224 223 214 202 185 179 249 250 235 239 207 212 220 218 218 223 231 237 234 236 233 227 227 229 228 223 223 225 227
214 199 202 211 214 207 208 210 216 225 199 210 222 222 216 222 211 204 188 185 178 240 261 235 224 213 218 208 219 218 219 232 236 236 238 235 232 234 233 229 223 225 227
210 205 200 208 216 211 204 207 219 219 210 222 220 208 222 230 217 200 196 182 200 190 236 220 228 233 210 213 216 218 220 221 233 235 233 237 234 235 233 230 225 225 227
199 204 214 210 205 207 204 204 217 212 210 227 224 223 236 192 202 209 190 207 204 188 241 277 234 290 218 214 224 215 217 215 234 241 241 240 241 239 234 230 227 226 227
210 209 203 207 203 202 202 204 215 216 218 225 234 218 239 183 203 206 215 226 207 197 210 243 255 246 223 213 220 216 214 218 221 231 237 240 236 234 235 234 233 229 228
214 215 204 209 207 208 198 203 208 204 209 210 210 208 226 202 209 200 208 213 212 206 195 205 247 257 251 183 211 221 211 227 235 241 240 245 244 239 235 235 236 234 232
211 213 216 210 207 199 196 196 199 206 205 203 203 208 218 202 203 206 210 212 204 208 207 223 234 244 247 255 204 221 240 215 241 242 244 235 231 234 232 233 234 234 235
213 214 214 210 205 201 204 204 208 203 196 206 209 216 208 201 202 199 191 210 196 205 202 223 241 259 262 225 207 227 237 243 249 217 226 234 228 230 237 234 234 235 237
211 210 212 210 202 209 203 211 192 190 194 201 217 221 220 207 225 212 198 186 185 203 215 198 223 222 246 244 221 218 224 219 287 251 210 262 198 233 233 225 228 229 233
202 207 209 207 204 201 203 214 198 189 190 198 198 205 213 217 214 211 214 201 207 219 205 193 217 220 234 216 216 256 244 216 232 263 157 267 206 249 238 234 234 232 234
205 205 207 205 203 203 201 205 203 201 188 197 188 196 202 223 217 196 198 216 226 222 227 222 223 249 225 232 213 204 230 249 284 270 196 268 235 252 255 243 240 238 237
206 203 197 191 188 194 192 198 177 186 190 194 206 207 208 223 230 213 193 213 225 240 242 230 228 242 246 231 228 153 241 220 286 267 221 222 244 276 272 271 251 248 244
209 191 179 173 177 194 194 189 176 174 180 174 189 229 223 217 229 199 200 219 223 236 235 247 233 249 253 246 236 215 207 203 202 300 247 194 231 203 308 278 283 269 264